• In Romania
  • List of Countries
  • For 7 days
  • Water Temperature
  • Satellite Maps
  • Weather Map
  • Weather Widgets
  • user-avatar
    Login

    Hourly Weather Samarskiy

    Today, 18 October, Thursday

    Time Temperature Precipitation Wind Pressure Humidity
    00:00 +7°C° 0 mm 3 mps 758 mmHg 74%
    01:00 +7°C° 0 mm 3 mps 759 mmHg 76%
    02:00 +6°C° 0 mm 2 mps 759 mmHg 78%
    03:00 +5°C° 0 mm 2 mps 759 mmHg 80%
    04:00 +5°C° 0 mm 2 mps 760 mmHg 81%
    05:00 +5°C° 0 mm 2 mps 760 mmHg 82%
    06:00 +5°C° 0 mm 1 mps 760 mmHg 82%
    07:00 +6°C° 0 mm 1 mps 760 mmHg 76%
    08:00 +7°C° 0 mm 1 mps 760 mmHg 70%
    09:00 +9°C° 0 mm 1 mps 760 mmHg 63%
    10:00 +9°C° 0 mm 2 mps 760 mmHg 58%
    11:00 +10°C° 0 mm 2 mps 760 mmHg 52%
    12:00 +12°C° 0 mm 2 mps 760 mmHg 47%
    13:00 +12°C° 0 mm 2 mps 760 mmHg 46%
    14:00 +12°C° 0 mm 2 mps 759 mmHg 45%
    15:00 +12°C° 0 mm 2 mps 759 mmHg 44%
    16:00 +10°C° 0 mm 2 mps 759 mmHg 49%
    17:00 +9°C° 0 mm 2 mps 759 mmHg 53%
    18:00 +8°C° 0 mm 2 mps 759 mmHg 57%
    19:00 +8°C° 0 mm 2 mps 759 mmHg 59%
    20:00 +7°C° 0 mm 2 mps 758 mmHg 61%
    21:00 +7°C° 0 mm 3 mps 758 mmHg 63%
    22:00 +7°C° 0 mm 3 mps 758 mmHg 64%
    23:00 +7°C° 0 mm 3 mps 758 mmHg 65%

    Tomorrow, 19 October, Friday

    Time Temperature Precipitation Wind Pressure Humidity
    00:00 +7°C° 0 mm 3 mps 758 mmHg 66%
    01:00 +7°C° 0 mm 3 mps 757 mmHg 67%
    02:00 +6°C° 0 mm 4 mps 757 mmHg 69%
    03:00 +6°C° 0 mm 4 mps 757 mmHg 70%
    04:00 +6°C° 0 mm 4 mps 757 mmHg 71%
    05:00 +6°C° 0 mm 4 mps 757 mmHg 73%
    06:00 +5°C° 0 mm 4 mps 756 mmHg 74%
    07:00 +7°C° 0 mm 4 mps 756 mmHg 72%
    08:00 +8°C° 0 mm 5 mps 756 mmHg 69%
    09:00 +9°C° 0 mm 5 mps 756 mmHg 67%
    10:00 +12°C° 0 mm 5 mps 756 mmHg 64%
    11:00 +13°C° 0 mm 6 mps 755 mmHg 61%
    12:00 +15°C° 0 mm 6 mps 755 mmHg 58%
    13:00 +15°C° 0 mm 6 mps 755 mmHg 58%
    14:00 +15°C° 0 mm 6 mps 755 mmHg 57%
    15:00 +15°C° 0 mm 5 mps 755 mmHg 57%
    16:00 +14°C° 0 mm 5 mps 754 mmHg 61%
    17:00 +13°C° 0 mm 5 mps 754 mmHg 66%
    18:00 +12°C° 0 mm 4 mps 754 mmHg 70%
    19:00 +12°C° 0 mm 4 mps 754 mmHg 70%
    20:00 +11°C° 0 mm 4 mps 754 mmHg 70%
    21:00 +11°C° 0 mm 4 mps 754 mmHg 71%
    22:00 +11°C° 0 mm 4 mps 754 mmHg 71%
    23:00 +11°C° 0 mm 4 mps 753 mmHg 71%

    Day after tomorrow, 20 October, Saturday

    Time Temperature Precipitation Wind Pressure Humidity
    00:00 +10°C° 0 mm 4 mps 753 mmHg 71%
    01:00 +9°C° 0 mm 5 mps 753 mmHg 70%
    02:00 +9°C° 0 mm 5 mps 753 mmHg 70%
    03:00 +8°C° 0 mm 5 mps 753 mmHg 69%
    04:00 +8°C° 0 mm 5 mps 752 mmHg 68%
    05:00 +8°C° 0 mm 5 mps 752 mmHg 67%
    06:00 +8°C° 0 mm 5 mps 752 mmHg 66%
    07:00 +9°C° 0 mm 5 mps 751 mmHg 63%
    08:00 +9°C° 0 mm 6 mps 751 mmHg 60%
    09:00 +10°C° 0 mm 6 mps 751 mmHg 57%
    10:00 +11°C° 0 mm 6 mps 751 mmHg 56%
    11:00 +13°C° 0 mm 6 mps 751 mmHg 55%
    12:00 +14°C° 0 mm 6 mps 751 mmHg 54%
    13:00 +14°C° 0.1 mm 5 mps 751 mmHg 59%
    14:00 +13°C° 0.1 mm 5 mps 751 mmHg 64%
    15:00 +13°C° 0.1 mm 4 mps 751 mmHg 69%
    16:00 +12°C° 0 mm 4 mps 752 mmHg 73%
    17:00 +11°C° 0 mm 3 mps 752 mmHg 77%
    18:00 +10°C° 0 mm 3 mps 753 mmHg 81%
    19:00 +9°C° 0 mm 3 mps 753 mmHg 81%
    20:00 +8°C° 0 mm 2 mps 753 mmHg 81%
    21:00 +7°C° 0 mm 2 mps 753 mmHg 81%
    22:00 +7°C° 0 mm 2 mps 754 mmHg 82%
    23:00 +6°C° 0 mm 2 mps 754 mmHg 82%

    21 October, Sunday

    Time Temperature Precipitation Wind Pressure Humidity
    00:00 +6°C° 0 mm 2 mps 754 mmHg 83%
    01:00 +6°C° 0 mm 1 mps 754 mmHg 84%
    02:00 +6°C° 0 mm 1 mps 754 mmHg 85%
    03:00 +6°C° 0 mm 1 mps 755 mmHg 86%
    04:00 +5°C° 0 mm 1 mps 755 mmHg 86%
    05:00 +5°C° 0 mm 1 mps 755 mmHg 86%
    06:00 +5°C° 0 mm 1 mps 755 mmHg 86%
    07:00 +6°C° 0 mm 1 mps 755 mmHg 80%
    08:00 +7°C° 0 mm 1 mps 756 mmHg 74%
    09:00 +8°C° 0 mm 1 mps 756 mmHg 68%
    10:00 +9°C° 0 mm 1 mps 756 mmHg 63%
    11:00 +9°C° 0 mm 2 mps 756 mmHg 59%
    12:00 +10°C° 0 mm 2 mps 756 mmHg 54%
    13:00 +10°C° 0 mm 2 mps 756 mmHg 54%
    14:00 +10°C° 0 mm 2 mps 756 mmHg 54%
    15:00 +10°C° 0 mm 2 mps 756 mmHg 54%
    16:00 +9°C° 0 mm 2 mps 757 mmHg 59%
    17:00 +8°C° 0 mm 2 mps 757 mmHg 64%
    18:00 +7°C° 0 mm 2 mps 757 mmHg 69%
    19:00 +7°C° 0 mm 2 mps 758 mmHg 71%
    20:00 +6°C° 0 mm 2 mps 758 mmHg 74%
    21:00 +6°C° 0 mm 2 mps 758 mmHg 76%
    22:00 +5°C° 0 mm 2 mps 758 mmHg 78%
    23:00 +5°C° 0 mm 2 mps 758 mmHg 81%

    22 October, Monday

    Time Temperature Precipitation Wind Pressure Humidity
    00:00 +5°C° 0 mm 2 mps 759 mmHg 83%
    01:00 +4°C° 0 mm 2 mps 759 mmHg 85%
    02:00 +4°C° 0 mm 2 mps 759 mmHg 87%
    03:00 +4°C° 0 mm 2 mps 759 mmHg 89%
    04:00 +3°C° 0 mm 2 mps 759 mmHg 89%
    05:00 +3°C° 0 mm 2 mps 759 mmHg 90%
    06:00 +3°C° 0 mm 2 mps 759 mmHg 91%
    07:00 +4°C° 0 mm 2 mps 759 mmHg 85%
    08:00 +5°C° 0 mm 2 mps 760 mmHg 79%
    09:00 +6°C° 0 mm 2 mps 760 mmHg 73%
    10:00 +8°C° 0 mm 1 mps 760 mmHg 68%
    11:00 +9°C° 0 mm 1 mps 760 mmHg 62%
    12:00 +10°C° 0 mm 1 mps 759 mmHg 57%
    13:00 +10°C° 0 mm 1 mps 759 mmHg 56%
    14:00 +10°C° 0 mm 1 mps 759 mmHg 55%
    15:00 +10°C° 0 mm 1 mps 759 mmHg 53%
    16:00 +9°C° 0 mm 1 mps 759 mmHg 58%
    17:00 +8°C° 0 mm 1 mps 759 mmHg 63%
    18:00 +7°C° 0 mm 1 mps 759 mmHg 67%
    19:00 +6°C° 0 mm 1 mps 758 mmHg 69%
    20:00 +6°C° 0 mm 1 mps 758 mmHg 71%
    21:00 +6°C° 0 mm 1 mps 758 mmHg 73%
    22:00 +5°C° 0 mm 1 mps 758 mmHg 74%
    23:00 +5°C° 0 mm 1 mps 758 mmHg 75%

    23 October, Tuesday

    Time Temperature Precipitation Wind Pressure Humidity
    00:00 +5°C° 0 mm 1 mps 758 mmHg 76%
    01:00 +4°C° 0 mm 1 mps 757 mmHg 78%
    02:00 +4°C° 0 mm 1 mps 757 mmHg 79%
    03:00 +4°C° 0 mm 1 mps 757 mmHg 80%
    04:00 +3°C° 0 mm 2 mps 757 mmHg 82%
    05:00 +3°C° 0 mm 2 mps 757 mmHg 83%
    06:00 +2°C° 0 mm 2 mps 757 mmHg 85%
    07:00 +4°C° 0 mm 2 mps 757 mmHg 79%
    08:00 +5°C° 0 mm 2 mps 757 mmHg 74%
    09:00 +5°C° 0 mm 3 mps 757 mmHg 68%
    10:00 +8°C° 0 mm 3 mps 756 mmHg 62%
    11:00 +9°C° 0 mm 3 mps 756 mmHg 56%
    12:00 +10°C° 0 mm 3 mps 756 mmHg 50%
    13:00 +10°C° 0 mm 3 mps 756 mmHg 50%
    14:00 +11°C° 0 mm 3 mps 755 mmHg 49%
    15:00 +11°C° 0 mm 3 mps 755 mmHg 48%
    16:00 +10°C° 0 mm 2 mps 755 mmHg 51%
    17:00 +9°C° 0 mm 2 mps 755 mmHg 53%
    18:00 +8°C° 0 mm 2 mps 755 mmHg 55%
    19:00 +8°C° 0 mm 2 mps 755 mmHg 56%
    20:00 +8°C° 0 mm 2 mps 755 mmHg 57%
    21:00 +8°C° 0 mm 2 mps 755 mmHg 57%
    22:00 +8°C° 0 mm 2 mps 755 mmHg 58%
    23:00 +8°C° 0 mm 2 mps 755 mmHg 59%
    Show more